Zurück zum Katalog

FENGYUN 1C DEB

AktivSSO
NORAD 31423·DEBRIS·🇨🇳 China

Gestartet May 10, 1999 von Taiyuan Satellite Launch Center

Loading…

Nächste Überflüge (nächste 24 Stunden)

TLE

AktuellSource: Space-Track

Epoche: Sep 14, 2026, 10:03 UTC

1 31423U 99025BTK 26257.41878537  .00000145  00000-0  82649-4 0  9996
2 31423  98.6133 236.8348 0037402 113.8304 246.6802 14.23136344  8293

Verfolge FENGYUN 1C DEB in Echtzeit mit AllMySat

Download on the App Store